Home   Weather   San Juan   Past weeks

Flag for Puerto Rico Past Weather in San Juan, Puerto Rico — Yesterday and Last 2 Weeks

Now
88 °F

Scattered clouds.


Feels Like: 100 °F
Forecast: 80 / 88 °F
Wind: 15 mph from Northeast

Location: Luis Munoz Marin

Current Time: Sep 26, 2016 at 3:12:58 PM

Latest Report: Sep 26, 2016 at 1:56 PM


Visibility: 10 mi

Pressure: 29.92 "Hg

Humidity: 70%

Dew Point: 77 °F

Location of San JuanLocation

Past Weather in San Juan — Graph

°F

San Juan Temperature Yesterday

Maximum temperature yesterday: 89 °F (at 11:56 AM)
Minimum temperature yesterday: 79 °F (at 4:56 AM)
Average temperature yesterday: 84 °F

High & Low Weather Summary for the Past Weeks

 TemperatureHumidityPressure
High93 °F (Sep 23, 12:56 PM)100% (Sep 11, 11:56 PM)30.04 "Hg (Sep 11, 11:56 PM)
Low75 °F (Sep 12, 4:56 AM)52% (Sep 23, 12:56 PM)29.57 "Hg (Sep 20, 7:56 AM)
Average83 °F80%29.96 "Hg
* Reported Sep 11 1:56 PM — Sep 26 1:56 PM, San Juan, Weather by CustomWeather, © 2016

Note: Actual official high and low records may vary slightly from our data, if they occured in-between our weather recording intervals... More about our weather records

Advertising

San Juan Weather History for the Previous 24 Hours

Scroll right to see more
 ConditionsComfort  
Time TempWeatherWind HumidityBarometerVisibility
1:56 PM
Mon, Sep 26
88 °FScattered clouds.15 mph70%29.92 "Hg10 mi
12:56 PM88 °FScattered clouds.14 mph67%29.93 "Hg10 mi
11:56 AM88 °FPassing clouds.13 mph67%29.96 "Hg10 mi
10:56 AM88 °FPassing clouds.13 mph67%29.98 "Hg10 mi
9:56 AM86 °FPassing clouds.8 mph75%29.99 "Hg10 mi
8:56 AM85 °FScattered clouds.9 mph75%29.99 "Hg10 mi
7:56 AM82 °FScattered clouds.No wind85%29.97 "Hg10 mi
6:56 AM79 °FPassing clouds.3 mph90%29.95 "Hg10 mi
5:56 AM79 °FPassing clouds.No wind94%29.93 "Hg10 mi
4:56 AM79 °FPassing clouds.No wind90%29.92 "Hg10 mi
3:56 AM80 °FPassing clouds.3 mph90%29.92 "Hg10 mi
2:56 AM81 °FPassing clouds.No wind82%29.93 "Hg10 mi
1:56 AM81 °FPassing clouds.No wind82%29.94 "Hg10 mi
12:56 AM82 °FPassing clouds.No wind82%29.97 "Hg10 mi
11:56 PM
Sun, Sep 25
82 °FPassing clouds.No wind82%29.98 "Hg10 mi
10:56 PM83 °FPassing clouds.5 mph79%29.99 "Hg10 mi
9:56 PM83 °FPassing clouds.8 mph79%29.99 "Hg10 mi
8:56 PM83 °FPassing clouds.7 mph79%29.98 "Hg10 mi
7:56 PM83 °FPassing clouds.8 mph82%29.96 "Hg10 mi
6:56 PM84 °FScattered clouds.9 mph77%29.94 "Hg10 mi
5:56 PM84 °FScattered clouds.10 mph77%29.93 "Hg10 mi
4:56 PM86 °FScattered clouds.13 mph72%29.93 "Hg10 mi
3:56 PM87 °FScattered clouds.15 mph67%29.91 "Hg10 mi
Weather by CustomWeather, © 2016

See weather overviewHow to use our weather pages